Location: Unspecified
(43.4680°N, 87.1740°E)
Time: 07:32:08
(UTC+00:00)

NOSS 0 Rocket - Pass Details

Date: 01 August 2021
Orbit: 936 x 954 km, 70.0° (Epoch: 18 September)

Event Time Altitude Azimuth Distance (km) Brightness Sun altitude
Rises 16:57:10 0° 335° (NNW) 3,636 8.3 -26.0°
Reaches altitude 10° 16:59:45 10° 339° (NNW) 2,686 7.3 -26.2°
Maximum altitude 17:05:57 65° 61° (ENE) 1,040 4.1 -26.5°
Enters shadow 17:06:58 56° 106° (ESE) 1,115 4.0 -26.6°
